Regional Weather Roundup
Issued by NWS

Home | Current Version | Previous Version | Graphics & Text | Print | Product List | Glossary On
Versions: 1 2 3 4 5 6 7 8 9 10 11 12 13 14 15 16 17 18 19 20 21 22 23 24 25 26 27 28 29 30 31 32 33 34 35 36 37 38 39 40 41 42 43 44 45 46 47 48 49 50
000
ASUS45 KSLC 270910
RWRUT

UTAH REGIONAL WEATHER ROUNDUP
NATIONAL WEATHER SERVICE SALT LAKE CITY UT
200 AM MST TUE JAN 27 2015

UTZ001>011-023>025-271000-

NORTHERN UTAH

CITY           SKY/WX    TMP DP  RH WIND       PRES   REMARKS
BRIGHAM CITY   PTCLDY    31  29  93 CALM      30.19F
HILL AFB       PTCLDY    37  31  81 N3        30.18F
LOGAN          PTCLDY    28  26  92 SW3       30.19F FOG
OGDEN          PTCLDY    32  31  96 CALM      30.18F FOG
PROVO AIRPORT  PTCLDY    28  27  93 NW5       30.19F WCI  23
SALT LAKE CITY PTCLDY    33  31  92 W5        30.18S WCI  29
VERNAL         PTCLDY    27  21  78 W5        30.33S WCI  22
WENDOVER       MOCLDY    30  27  86 N3        30.19S
HEBER CITY     PTCLDY    27  23  86 E6        30.23F WCI  20
WEST JORDAN    CLEAR     37  34  87 CALM      30.18F

$$

UTZ012>022-026-027-271000-

SOUTHERN/CENTRAL UTAH

CITY           SKY/WX    TMP DP  RH WIND       PRES   REMARKS
BLANDING       PTCLDY    37  25  63 N3        30.39S
BRYCE CANYON   MOCLDY    27  23  85 VRB3      30.31F
CEDAR CITY     CLOUDY    37  30  75 CALM      30.20S
DELTA          MOCLDY    32  30  94 NE5       30.20S WCI  27
MILFORD        CLOUDY    33  29  85 SE5       30.19F WCI  29
MOAB/CYNLANDS  CLEAR     32  28  85 CALM      30.28F
PRICE          MOCLDY    33  24  69 N8        30.29F WCI  26
ST GEORGE      CLOUDY    52  28  40 SW7       30.21R
KANAB            N/A     48  27  43 NE3       30.29R

$$

REGIONAL REPORTS     COLORADO/ARIZONA

CITY           SKY/WX    TMP DP  RH WIND       PRES   REMARKS
CRAIG, CO      PTCLDY    14  10  84 CALM      30.35S
GRAND JUNCTION PTCLDY    31  26  82 SE10      30.30F WCI  22
RIFLE          CLEAR     28  23  81 CALM      30.36F
MONTROSE       CLEAR     28  22  78 S9        30.36F WCI  19
CORTEZ         CLEAR     28  22  78 CALM      30.33S
PAGE, AZ       NOT AVBL
GRAND CANYON   LGT RAIN  39  36  89 E5        30.30S
KINGMAN        LGT RAIN  46  43  89 NW7       30.20F
FLAGSTAFF      CLOUDY    39  29  67 CALM      30.31S

$$

REGIONAL REPORTS    NEVADA/IDAHO/WYOMING

CITY           SKY/WX    TMP DP  RH WIND       PRES   REMARKS
LAS VEGAS, NV  LGT RAIN  53  48  83 S10       30.16F
ELY            CLOUDY    38  27  64 S12       30.20S WCI  30
ELKO           CLOUDY    34  28  79 NE5       30.12S WCI  30
POCATELLO, ID  CLEAR     27  27 100 CALM      30.16F FOG
BURLEY         CLEAR     34  30  85 NE8       30.11F WCI  27
EVANSTON, WY   PTCLDY    37  26  64 E8        30.25F WCI  31
ROCK SPRINGS   PTCLDY    32  24  72 NE6       30.26F WCI  26
KEMMERER       MOCLDY    27  19  74 N9        30.28S WCI  17

$$



USA.gov is the U.S. government's official web portal to all federal, state and local government web resources and services.